GW0360 Weather Reports


Display with metric or nautical units.
time (UTC)temp
F
wind
direction
speed
MPH
gust
MPH
rain 1hr
in
rain 24hr
in
rain mn
in
humidity
%
barometer
mb
20260505034554 71 0 0.0 3.0 0.00 0.00 0.00 41 1005.0
20260505034044 72 0 0.0 11.0 0.00 0.00 0.00 42 1005.0
20260505033544 72 0 0.0 11.0 0.00 0.00 0.00 44 1004.8
20260505033048 71 47 1.0 11.0 0.00 0.00 0.00 47 1004.5
20260505032544 71 0 0.0 5.0 0.00 0.00 0.00 51 1004.5
20260505032047 71 70 1.0 5.0 0.00 0.00 0.00 53 1004.3
20260505031550 70 360 1.0 2.0 0.00 0.00 0.00 60 1004.0
20260505031043 70 0 0.0 2.0 0.00 0.00 0.00 64 1003.8
20260505030544 70 0 0.0 2.0 0.00 0.00 0.00 66 1003.6
20260505025541 70 0 0.0 4.0 0.00 0.00 0.00 65 1003.2
20260505025044 70 0 0.0 4.0 0.00 0.00 0.00 65 1003.3
20260505024547 70 0 0.0 2.0 0.00 0.00 0.00 65 1003.1
20260505024044 70 0 0.0 2.0 0.00 0.00 0.00 65 1003.1
20260505023545 70 0 0.0 2.0 0.00 0.00 0.00 65 1003.1
20260505023053 70 189 0.0 2.0 0.00 0.00 0.00 65 1003.0
20260505022541 70 0 0.0 1.0 0.00 0.00 0.00 65 1003.0
20260505022045 70 0 0.0 1.0 0.00 0.00 0.00 66 1002.8
20260505021555 70 0 0.0 0.0 0.00 0.00 0.00 66 1002.7
20260505021044 70 0 0.0 0.0 0.00 0.00 0.00 65 1002.8
20260505020545 70 0 0.0 1.0 0.00 0.00 0.00 65 1002.7
20260505020058 71 0 0.0 1.0 0.00 0.00 0.00 64 1002.6
20260505015542 71 0 0.0 2.0 0.00 0.00 0.00 65 1002.5
20260505015047 71 0 0.0 2.0 0.00 0.00 0.00 66 1002.5
20260505014553 71 0 0.0 0.0 0.00 0.00 0.00 67 1002.4
20260505014041 71 0 0.0 0.0 0.00 0.00 0.00 66 1002.4
20260505013547 71 0 0.0 0.0 0.00 0.00 0.00 65 1002.4
20260505013054 71 0 0.0 0.0 0.00 0.00 0.00 64 1002.3
20260505012544 72 0 0.0 0.0 0.00 0.00 0.00 63 1002.2
20260505012042 72 0 0.0 0.0 0.00 0.00 0.00 63 1002.2
20260505011552 73 0 0.0 0.0 0.00 0.00 0.00 60 1002.0
20260505011044 73 0 0.0 0.0 0.00 0.00 0.00 60 1001.9
20260505010546 74 0 0.0 0.0 0.00 0.00 0.00 59 1001.9
20260505010109 74 0 0.0 0.0 0.00 0.00 0.00 58 1001.9
20260505005545 75 0 0.0 0.0 0.00 0.00 0.00 56 1001.9
20260505005045 75 0 0.0 0.0 0.00 0.00 0.00 56 1002.0
20260505004549 75 0 0.0 1.0 0.00 0.00 0.00 55 1001.8
20260505004040 76 0 0.0 1.0 0.00 0.00 0.00 54 1002.0
20260505003540 76 0 0.0 1.0 0.00 0.00 0.00 54 1001.9
20260505003052 77 0 0.0 1.0 0.00 0.00 0.00 53 1001.9
20260505002546 77 0 0.0 1.0 0.00 0.00 0.00 52 1001.9
20260505002046 77 0 0.0 1.0 0.00 0.00 0.00 51 1001.9
20260505001551 77 0 0.0 1.0 0.00 0.00 0.00 51 1002.0
20260505001045 78 0 0.0 3.0 0.00 0.00 0.00 50 1002.1
20260505000543 78 0 0.0 3.0 0.00 0.00 0.00 49 1002.0
20260505000100 78 189 0.0 3.0 0.00 0.00 0.00 48 1002.1
20260504235547 78 154 0.0 3.0 0.00 0.00 0.00 49 1002.0
20260504235045 79 0 0.0 3.0 0.00 0.00 0.00 48 1002.1
20260504234551 79 184 0.0 4.0 0.00 0.00 0.00 46 1002.0
20260504234044 79 201 1.0 5.0 0.00 0.00 0.00 47 1002.1
20260504233548 79 185 1.0 5.0 0.00 0.00 0.00 47 1002.1
20260504233057 79 223 1.0 5.0 0.00 0.00 0.00 46 1002.1
20260504232545 80 0 1.0 5.0 0.00 0.00 0.00 45 1002.1
20260504232043 80 201 0.0 5.0 0.00 0.00 0.00 43 1002.1
20260504231555 80 0 1.0 5.0 0.00 0.00 0.00 43 1002.0
20260504231040 80 190 0.0 4.0 0.00 0.00 0.00 44 1002.1
20260504230545 80 0 0.0 4.0 0.00 0.00 0.00 41 1002.0
20260504230110 80 184 1.0 5.0 0.00 0.00 0.00 41 1002.1
20260504225548 80 184 1.0 5.0 0.00 0.00 0.00 40 1002.1
20260504225047 81 217 1.0 7.0 0.00 0.00 0.00 40 1001.9
20260504224606 81 201 3.0 7.0 0.00 0.00 0.00 39 1001.9
20260504224040 81 172 1.0 7.0 0.00 0.00 0.00 38 1001.8
20260504223543 81 250 2.0 7.0 0.00 0.00 0.00 39 1001.9
20260504223047 81 177 2.0 8.0 0.00 0.00 0.00 40 1001.8
20260504222544 82 216 3.0 9.0 0.00 0.00 0.00 39 1001.9
20260504222044 82 157 2.0 10.0 0.00 0.00 0.00 39 1001.8
20260504221548 83 161 4.0 10.0 0.00 0.00 0.00 38 1001.9
20260504221044 83 218 1.0 5.0 0.00 0.00 0.00 40 1001.9
20260504220544 83 180 1.0 7.0 0.00 0.00 0.00 39 1001.8
20260504220058 83 0 2.0 7.0 0.00 0.00 0.00 41 1001.8
20260504215545 83 194 1.0 5.0 0.00 0.00 0.00 40 1001.9
20260504215043 82 149 2.0 5.0 0.00 0.00 0.00 40 1001.9
20260504214548 82 171 1.0 9.0 0.00 0.00 0.00 40 1002.0
20260504214040 82 167 2.0 9.0 0.00 0.00 0.00 40 1002.1
20260504213544 83 146 3.0 9.0 0.00 0.00 0.00 38 1002.1
20260504213056 84 227 3.0 9.0 0.00 0.00 0.00 38 1002.1
20260504212544 83 140 1.0 6.0 0.00 0.00 0.00 41 1002.2
20260504212044 83 204 2.0 13.0 0.00 0.00 0.00 40 1002.2
20260504211558 83 204 2.0 13.0 0.00 0.00 0.00 40 1002.1
20260504211043 83 138 1.0 7.0 0.00 0.00 0.00 40 1002.2
20260504210547 83 138 3.0 7.0 0.00 0.00 0.00 42 1002.4
20260504210101 83 171 2.0 7.0 0.00 0.00 0.00 39 1002.4
20260504205544 83 170 2.0 9.0 0.00 0.00 0.00 38 1002.3
20260504205044 83 128 2.0 10.0 0.00 0.00 0.00 40 1002.4
20260504204554 82 207 3.0 10.0 0.00 0.00 0.00 38 1002.5
20260504204041 82 178 2.0 8.0 0.00 0.00 0.00 40 1002.5
20260504203545 83 103 3.0 9.0 0.00 0.00 0.00 38 1002.6
20260504203057 84 225 2.0 9.0 0.00 0.00 0.00 36 1002.6
20260504202544 85 188 1.0 6.0 0.00 0.00 0.00 36 1002.6
20260504202044 83 186 1.0 11.0 0.00 0.00 0.00 37 1002.6
20260504201604 84 207 3.0 11.0 0.00 0.00 0.00 36 1002.7
20260504201043 83 137 1.0 7.0 0.00 0.00 0.00 36 1002.7
20260504200543 83 226 1.0 9.0 0.00 0.00 0.00 38 1002.8
20260504195542 84 176 2.0 8.0 0.00 0.00 0.00 37 1002.8
20260504195044 84 148 1.0 7.0 0.00 0.00 0.00 37 1003.0
20260504194552 84 224 1.0 6.0 0.00 0.00 0.00 36 1002.9
20260504194041 84 182 1.0 9.0 0.00 0.00 0.00 36 1002.8
20260504193543 85 261 3.0 9.0 0.00 0.00 0.00 36 1002.9
20260504193050 84 225 1.0 5.0 0.00 0.00 0.00 39 1002.9
20260504192543 85 0 2.0 7.0 0.00 0.00 0.00 35 1002.9
20260504192044 84 247 0.0 7.0 0.00 0.00 0.00 38 1002.9
20260504191612 85 209 2.0 9.0 0.00 0.00 0.00 38 1003.0
20260504191044 85 213 2.0 11.0 0.00 0.00 0.00 36 1003.0
20260504190547 85 245 4.0 11.0 0.00 0.00 0.00 36 1003.0
20260504190055 85 200 4.0 9.0 0.00 0.00 0.00 35 1003.0
20260504185543 85 182 3.0 9.0 0.00 0.00 0.00 37 1003.0
20260504185042 84 184 1.0 8.0 0.00 0.00 0.00 41 1003.0
20260504184551 84 148 3.0 8.0 0.00 0.00 0.00 40 1003.0
20260504184043 83 332 2.0 8.0 0.00 0.00 0.00 39 1003.0
20260504183543 83 186 2.0 8.0 0.00 0.00 0.00 41 1003.0
20260504183049 83 0 2.0 10.0 0.00 0.00 0.00 39 1003.1
20260504182544 83 190 4.0 11.0 0.00 0.00 0.00 40 1003.1
20260504182041 83 236 2.0 11.0 0.00 0.00 0.00 41 1003.2
20260504181548 81 229 2.0 11.0 0.00 0.00 0.00 42 1003.1
20260504181044 82 211 3.0 11.0 0.00 0.00 0.00 40 1003.1
20260504180544 81 73 2.0 8.0 0.00 0.00 0.00 41 1003.1
20260504180052 82 173 3.0 8.0 0.00 0.00 0.00 41 1003.2
20260504175544 82 204 3.0 8.0 0.00 0.00 0.00 40 1003.3
20260504175045 82 173 3.0 8.0 0.00 0.00 0.00 41 1003.3
20260504174556 81 210 4.0 7.0 0.00 0.00 0.00 41 1003.2
20260504174044 81 146 2.0 10.0 0.00 0.00 0.00 42 1003.3
20260504173545 81 0 3.0 10.0 0.00 0.00 0.00 40 1003.2
20260504173052 81 230 3.0 10.0 0.00 0.00 0.00 39 1003.2
20260504172916 80 208 2.0 7.0 0.00 0.00 0.00 42 1003.4
20260504172043 81 185 2.0 7.0 0.00 0.00 0.00 43 1003.5
20260504171555 80 156 2.0 6.0 0.00 0.00 0.00 43 1003.4
20260504171044 80 232 1.0 7.0 0.00 0.00 0.00 43 1003.6
20260504170540 80 198 3.0 9.0 0.00 0.00 0.00 41 1003.5
20260504151043 73 232 3.0 11.0 0.00 0.00 0.00 48 1003.7
20260504150607 73 187 4.0 11.0 0.00 0.00 0.00 48 1003.8
20260504141040 69 191 3.0 14.0 0.00 0.00 0.00 56 1003.8
20260504140541 68 230 3.0 11.0 0.00 0.00 0.00 57 1003.8
20260504130543 63 234 1.0 7.0 0.00 0.00 0.00 64 1003.5
20260504120124 54 0 0.0 0.0 0.00 0.00 0.00 82 1003.7
20260504110540 54 0 0.0 0.0 0.00 0.00 0.00 79 1003.8
20260504100540 55 0 0.0 0.0 0.00 0.00 0.00 77 1004.7
20260504081554 57 0 0.0 1.0 0.00 0.00 0.00 69 1005.0
20260504081042 58 0 0.0 0.0 0.00 0.00 0.00 69 1005.1
20260504080541 58 0 0.0 1.0 0.00 0.00 0.00 68 1005.0
20260504050541 62 0 0.0 1.0 0.00 0.00 0.00 67 1007.0
20260504045540 62 0 0.0 0.0 0.00 0.00 0.00 66 1007.1
20260504045040 63 0 0.0 0.0 0.00 0.00 0.00 64 1007.2
20260504044553 63 0 0.0 1.0 0.00 0.00 0.00 63 1007.1
20260504044040 64 0 0.0 1.0 0.00 0.00 0.00 62 1007.2
20260504043542 65 0 0.0 1.0 0.00 0.00 0.00 60 1007.2
20260504043109 65 0 0.0 2.0 0.00 0.00 0.00 59 1007.3
20260504042541 66 0 0.0 4.0 0.00 0.00 0.00 59 1007.4
20260504042040 66 0 0.0 5.0 0.00 0.00 0.00 58 1007.4
20260504041552 66 187 1.0 5.0 0.00 0.00 0.00 58 1007.6
20260504041040 66 0 1.0 4.0 0.00 0.00 0.00 58 1007.6
20260504040540 66 0 0.0 3.0 0.00 0.00 0.00 58 1007.5
20260504040049 66 46 0.0 1.0 0.00 0.00 0.00 58 1007.6
20260504035544 67 0 0.0 0.0 0.00 0.00 0.00 57 1007.7
20260504035043 67 0 0.0 0.0 0.00 0.00 0.00 56 1007.7